Time,TemperatureF,DewpointF,PressureIn,WindDirection,WindDirectionDegrees,WindSpeedMPH,WindSpeedGustMPH,Humidity,HourlyPrecipIn,Conditions,Clouds,dailyrainin,SoftwareType,DateUTC
2013-05-25 00:00:00,50.0,38.7,30.21,NNE,24,1.0,3.0,65,0.00,,---,0.03,VWS V14.01,2013-05-25 04:00:00,
2013-05-25 00:08:00,49.8,38.5,30.20,NNW,331,2.0,3.0,65,0.00,,---,0.00,VWS V14.01,2013-05-25 04:08:00,
2013-05-25 00:23:00,49.4,38.5,30.21,East,91,0.0,4.0,66,0.00,,---,0.00,VWS V14.01,2013-05-25 04:23:00,
2013-05-25 00:30:00,49.2,38.7,30.21,North,360,0.0,4.0,67,0.00,,---,0.00,VWS V14.01,2013-05-25 04:30:00,
2013-05-25 00:38:00,49.0,38.5,30.20,NNE,18,0.0,2.0,67,0.00,,---,0.00,VWS V14.01,2013-05-25 04:38:00,
2013-05-25 00:53:00,48.7,38.2,30.20,ENE,78,3.0,3.0,67,0.00,,---,0.00,VWS V14.01,2013-05-25 04:53:00,
2013-05-25 01:00:00,48.6,38.2,30.20,NNE,15,0.0,4.0,67,0.00,,---,0.00,VWS V14.01,2013-05-25 05:00:00,
2013-05-25 01:08:00,48.4,37.6,30.20,NE,45,0.0,2.0,66,0.00,,---,0.00,VWS V14.01,2013-05-25 05:08:00,
2013-05-25 01:23:00,48.3,37.1,30.20,NNE,18,0.0,5.0,65,0.00,,---,0.00,VWS V14.01,2013-05-25 05:23:00,
2013-05-25 01:30:00,48.2,37.4,30.20,WNW,293,0.0,5.0,66,0.00,,---,0.00,VWS V14.01,2013-05-25 05:30:00,
2013-05-25 01:38:00,48.1,36.9,30.20,ENE,70,0.0,4.0,65,0.00,,---,0.00,VWS V14.01,2013-05-25 05:38:00,
2013-05-25 01:53:00,47.8,36.6,30.20,WNW,299,0.0,4.0,65,0.00,,---,0.00,VWS V14.01,2013-05-25 05:53:00,
2013-05-25 02:00:00,47.6,36.4,30.19,South,184,1.0,4.0,65,0.00,,---,0.00,VWS V14.01,2013-05-25 06:00:00,
2013-05-25 02:08:00,47.5,36.3,30.19,East,90,0.0,2.0,65,0.00,,---,0.00,VWS V14.01,2013-05-25 06:08:00,
2013-05-25 02:23:00,47.4,36.2,30.19,WNW,298,2.0,4.0,65,0.00,,---,0.00,VWS V14.01,2013-05-25 06:23:00,
2013-05-25 02:30:00,47.4,36.2,30.19,ENE,59,0.0,4.0,65,0.00,,---,0.00,VWS V14.01,2013-05-25 06:30:00,
2013-05-25 02:38:00,47.3,36.2,30.19,NE,55,0.0,2.0,65,0.00,,---,0.00,VWS V14.01,2013-05-25 06:38:00,
2013-05-25 02:53:00,47.2,36.0,30.19,NNW,332,0.0,5.0,65,0.00,,---,0.00,VWS V14.01,2013-05-25 06:53:00,
2013-05-25 03:00:00,47.2,36.0,30.19,North,355,0.0,5.0,65,0.00,,---,0.00,VWS V14.01,2013-05-25 07:00:00,
2013-05-25 03:08:00,47.1,36.0,30.19,North,360,0.0,3.0,65,0.00,,---,0.00,VWS V14.01,2013-05-25 07:08:00,
2013-05-25 03:23:00,47.2,36.8,30.19,NNW,333,0.0,3.0,67,0.00,,---,0.00,VWS V14.01,2013-05-25 07:23:00,
2013-05-25 03:30:00,47.2,36.4,30.19,NNE,13,1.0,6.0,66,0.00,,---,0.00,VWS V14.01,2013-05-25 07:30:00,
2013-05-25 03:38:00,47.1,36.3,30.20,NE,47,0.0,2.0,66,0.00,,---,0.00,VWS V14.01,2013-05-25 07:38:00,
2013-05-25 03:53:00,47.0,36.2,30.20,NE,54,0.0,5.0,66,0.00,,---,0.00,VWS V14.01,2013-05-25 07:53:00,
2013-05-25 04:00:00,46.9,36.5,30.21,WNW,287,0.0,5.0,67,0.00,,---,0.00,VWS V14.01,2013-05-25 08:00:00,
2013-05-25 04:08:00,46.7,36.3,30.21,ENE,59,0.0,3.0,67,0.00,,---,0.00,VWS V14.01,2013-05-25 08:08:00,
2013-05-25 04:23:00,46.3,36.3,30.21,NNE,30,0.0,5.0,68,0.00,,---,0.00,VWS V14.01,2013-05-25 08:23:00,
2013-05-25 04:30:00,46.1,36.5,30.21,WSW,243,0.0,5.0,69,0.00,,---,0.00,VWS V14.01,2013-05-25 08:30:00,
2013-05-25 04:38:00,46.0,36.4,30.21,WNW,296,1.0,1.0,69,0.00,,---,0.00,VWS V14.01,2013-05-25 08:38:00,
2013-05-25 04:53:00,45.8,36.6,30.21,NW,309,0.0,3.0,70,0.00,,---,0.00,VWS V14.01,2013-05-25 08:53:00,
2013-05-25 05:00:00,45.7,36.5,30.21,NNW,336,0.0,3.0,70,0.00,,---,0.00,VWS V14.01,2013-05-25 09:00:00,
2013-05-25 05:08:00,45.7,36.5,30.21,ENE,65,0.0,4.0,70,0.00,,---,0.00,VWS V14.01,2013-05-25 09:08:00,
2013-05-25 05:23:00,45.6,36.4,30.21,North,355,0.0,6.0,70,0.00,,---,0.00,VWS V14.01,2013-05-25 09:23:00,
2013-05-25 05:30:00,45.6,36.4,30.21,NE,36,1.0,6.0,70,0.00,,---,0.00,VWS V14.01,2013-05-25 09:30:00,
2013-05-25 05:38:00,45.6,36.4,30.21,West,281,0.0,3.0,70,0.00,,---,0.00,VWS V14.01,2013-05-25 09:38:00,
2013-05-25 05:53:00,45.6,36.8,30.22,North,360,2.0,3.0,71,0.00,,---,0.00,VWS V14.01,2013-05-25 09:53:00,
2013-05-25 06:00:00,45.6,36.8,30.22,NNW,348,0.0,3.0,71,0.00,,---,0.00,VWS V14.01,2013-05-25 10:00:00,
2013-05-25 06:08:00,45.6,36.8,30.22,NE,52,0.0,5.0,71,0.00,,---,0.00,VWS V14.01,2013-05-25 10:08:00,
2013-05-25 06:23:00,45.8,36.6,30.22,NW,315,0.0,5.0,70,0.00,,---,0.00,VWS V14.01,2013-05-25 10:23:00,
2013-05-25 06:30:00,45.9,37.4,30.22,ENE,64,0.0,5.0,72,0.00,,---,0.00,VWS V14.01,2013-05-25 10:30:00,
2013-05-25 06:38:00,46.0,37.1,30.22,ENE,65,0.0,3.0,71,0.00,,---,0.00,VWS V14.01,2013-05-25 10:38:00,
2013-05-25 06:53:00,46.3,37.4,30.23,North,349,0.0,4.0,71,0.00,,---,0.00,VWS V14.01,2013-05-25 10:53:00,
2013-05-25 07:00:00,46.4,37.5,30.23,NE,52,1.0,4.0,71,0.00,,---,0.00,VWS V14.01,2013-05-25 11:00:00,
2013-05-25 07:08:00,46.6,37.7,30.23,NE,46,1.0,5.0,71,0.00,,---,0.00,VWS V14.01,2013-05-25 11:08:00,
2013-05-25 07:23:00,46.9,38.0,30.24,NNW,346,0.0,6.0,71,0.00,,---,0.00,VWS V14.01,2013-05-25 11:23:00,
2013-05-25 07:30:00,47.0,37.7,30.24,NW,319,0.0,6.0,70,0.00,,---,0.00,VWS V14.01,2013-05-25 11:30:00,
2013-05-25 07:38:00,47.3,38.4,30.24,SE,126,0.0,4.0,71,0.00,,---,0.00,VWS V14.01,2013-05-25 11:38:00,
2013-05-25 07:53:00,47.8,38.9,30.25,NNW,333,0.0,4.0,71,0.00,,---,0.00,VWS V14.01,2013-05-25 11:53:00,
2013-05-25 08:00:00,48.0,38.7,30.25,North,5,0.0,4.0,70,0.00,,---,0.00,VWS V14.01,2013-05-25 12:00:00,
2013-05-25 08:08:00,48.3,39.0,30.25,NNE,30,1.0,6.0,70,0.00,,---,0.00,VWS V14.01,2013-05-25 12:08:00,
2013-05-25 08:23:00,49.0,38.9,30.25,West,274,2.0,9.0,68,0.00,,---,0.00,VWS V14.01,2013-05-25 12:23:00,
2013-05-25 08:30:00,49.4,39.3,30.24,NW,307,1.0,9.0,68,0.00,,---,0.00,VWS V14.01,2013-05-25 12:30:00,
2013-05-25 08:38:00,49.8,39.7,30.25,NE,34,0.0,6.0,68,0.00,,---,0.00,VWS V14.01,2013-05-25 12:38:00,
2013-05-25 08:53:00,50.8,40.2,30.24,NE,47,0.0,6.0,67,0.00,,---,0.00,VWS V14.01,2013-05-25 12:53:00,
2013-05-25 09:00:00,51.4,40.8,30.24,SW,232,3.0,6.0,67,0.00,,---,0.00,VWS V14.01,2013-05-25 13:00:00,
2013-05-25 09:08:00,52.0,40.2,30.24,NNE,28,1.0,6.0,64,0.00,,---,0.00,VWS V14.01,2013-05-25 13:08:00,
2013-05-25 09:23:00,53.3,40.6,30.24,NE,48,3.0,6.0,62,0.00,,---,0.00,VWS V14.01,2013-05-25 13:23:00,
2013-05-25 09:30:00,53.4,41.1,30.24,NNW,336,0.0,6.0,63,0.00,,---,0.00,VWS V14.01,2013-05-25 13:30:00,
2013-05-25 09:38:00,53.6,40.5,30.24,WSW,250,1.0,4.0,61,0.00,,---,0.00,VWS V14.01,2013-05-25 13:38:00,
2013-05-25 09:53:00,54.1,40.5,30.23,ENE,68,2.0,7.0,60,0.00,,---,0.00,VWS V14.01,2013-05-25 13:53:00,
2013-05-25 10:00:00,54.3,41.2,30.23,NNE,17,0.0,7.0,61,0.00,,---,0.00,VWS V14.01,2013-05-25 14:00:00,
2013-05-25 10:08:00,54.9,41.3,30.23,NNW,329,1.0,5.0,60,0.00,,---,0.00,VWS V14.01,2013-05-25 14:08:00,
2013-05-25 10:24:00,54.9,41.3,30.22,ENE,75,3.0,8.0,60,0.00,,---,0.00,VWS V14.01,2013-05-25 14:24:00,
2013-05-25 10:30:00,55.2,41.6,30.22,NE,36,0.0,8.0,60,0.00,,---,0.00,VWS V14.01,2013-05-25 14:30:00,
2013-05-25 10:39:00,55.7,42.0,30.22,West,275,1.0,6.0,60,0.00,,---,0.00,VWS V14.01,2013-05-25 14:39:00,
2013-05-25 10:54:00,56.5,42.4,30.21,NNE,31,0.0,8.0,59,0.00,,---,0.00,VWS V14.01,2013-05-25 14:54:00,
2013-05-25 11:00:00,56.6,41.1,30.22,WNW,290,1.0,8.0,56,0.00,,---,0.00,VWS V14.01,2013-05-25 15:00:00,
2013-05-25 11:09:00,57.2,42.6,30.22,SE,137,0.0,6.0,58,0.00,,---,0.00,VWS V14.01,2013-05-25 15:09:00,
2013-05-25 11:24:00,57.6,42.5,30.22,WNW,292,2.0,8.0,57,0.00,,---,0.00,VWS V14.01,2013-05-25 15:24:00,
2013-05-25 11:30:00,57.7,43.0,30.22,ENE,68,5.0,8.0,58,0.00,,---,0.00,VWS V14.01,2013-05-25 15:30:00,
2013-05-25 11:39:00,57.8,42.7,30.21,NE,54,2.0,8.0,57,0.00,,---,0.00,VWS V14.01,2013-05-25 15:39:00,
2013-05-25 11:54:00,58.5,42.4,30.21,ENE,63,0.0,8.0,55,0.00,,---,0.00,VWS V14.01,2013-05-25 15:54:00,
2013-05-25 12:00:00,58.9,43.7,30.20,NE,48,1.0,8.0,57,0.00,,---,0.00,VWS V14.01,2013-05-25 16:00:00,
2013-05-25 12:09:00,59.0,43.8,30.21,ENE,59,0.0,8.0,57,0.00,,---,0.00,VWS V14.01,2013-05-25 16:09:00,
2013-05-25 12:24:00,60.2,44.0,30.20,West,272,0.0,10.0,55,0.00,,---,0.00,VWS V14.01,2013-05-25 16:24:00,
2013-05-25 12:30:00,60.9,44.6,30.19,ENE,69,1.0,10.0,55,0.00,,---,0.00,VWS V14.01,2013-05-25 16:30:00,
2013-05-25 12:39:00,61.4,45.1,30.19,WNW,286,2.0,4.0,55,0.00,,---,0.00,VWS V14.01,2013-05-25 16:39:00,
2013-05-25 12:54:00,62.0,43.7,30.19,NW,306,0.0,8.0,51,0.00,,---,0.00,VWS V14.01,2013-05-25 16:54:00,
2013-05-25 13:00:00,62.1,44.3,30.18,NNW,343,1.0,8.0,52,0.00,,---,0.00,VWS V14.01,2013-05-25 17:00:00,
2013-05-25 13:09:00,62.1,43.8,30.18,SE,139,0.0,10.0,51,0.00,,---,0.00,VWS V14.01,2013-05-25 17:09:00,
2013-05-25 13:24:00,62.5,45.2,30.18,WSW,248,4.0,10.0,53,0.00,,---,0.00,VWS V14.01,2013-05-25 17:24:00,
2013-05-25 13:30:00,63.0,44.6,30.18,WSW,254,0.0,10.0,51,0.00,,---,0.00,VWS V14.01,2013-05-25 17:30:00,
2013-05-25 13:39:00,63.6,46.7,30.17,East,101,1.0,5.0,54,0.00,,---,0.00,VWS V14.01,2013-05-25 17:39:00,
2013-05-25 13:54:00,64.1,45.1,30.17,ENE,74,2.0,11.0,50,0.00,,---,0.00,VWS V14.01,2013-05-25 17:54:00,
2013-05-25 14:00:00,64.2,45.7,30.17,SE,145,3.0,11.0,51,0.00,,---,0.00,VWS V14.01,2013-05-25 18:00:00,
2013-05-25 14:09:00,64.6,45.6,30.17,ENE,78,3.0,7.0,50,0.00,,---,0.00,VWS V14.01,2013-05-25 18:09:00,
2013-05-25 14:24:00,65.4,47.8,30.16,ESE,117,0.0,7.0,53,0.00,,---,0.00,VWS V14.01,2013-05-25 18:24:00,
2013-05-25 14:30:00,65.8,46.1,30.16,WNW,288,0.0,7.0,49,0.00,,---,0.00,VWS V14.01,2013-05-25 18:30:00,
2013-05-25 14:39:00,65.3,45.7,30.16,ENE,69,2.0,6.0,49,0.00,,---,0.00,VWS V14.01,2013-05-25 18:39:00,
2013-05-25 14:54:00,65.0,46.5,30.16,NNW,327,1.0,7.0,51,0.00,,---,0.00,VWS V14.01,2013-05-25 18:54:00,
2013-05-25 15:00:00,65.7,46.6,30.15,ENE,61,0.0,7.0,50,0.00,,---,0.00,VWS V14.01,2013-05-25 19:00:00,
2013-05-25 15:09:00,65.7,46.6,30.16,SW,235,0.0,5.0,50,0.00,,---,0.00,VWS V14.01,2013-05-25 19:09:00,
2013-05-25 15:24:00,65.6,44.8,30.16,North,5,0.0,6.0,47,0.00,,---,0.00,VWS V14.01,2013-05-25 19:24:00,
2013-05-25 15:30:00,65.6,43.7,30.15,East,100,0.0,8.0,45,0.00,,---,0.00,VWS V14.01,2013-05-25 19:30:00,
2013-05-25 15:39:00,66.1,44.2,30.15,West,271,6.0,7.0,45,0.00,,---,0.00,VWS V14.01,2013-05-25 19:39:00,
2013-05-25 15:54:00,66.3,45.5,30.14,NE,40,1.0,8.0,47,0.00,,---,0.00,VWS V14.01,2013-05-25 19:54:00,
2013-05-25 16:00:00,66.0,42.9,30.14,NE,44,2.0,9.0,43,0.00,,---,0.00,VWS V14.01,2013-05-25 20:00:00,
2013-05-25 16:09:00,65.6,42.5,30.14,NNE,21,3.0,9.0,43,0.00,,---,0.00,VWS V14.01,2013-05-25 20:09:00,
2013-05-25 16:24:00,65.8,42.7,30.14,ENE,74,1.0,9.0,43,0.00,,---,0.00,VWS V14.01,2013-05-25 20:24:00,
2013-05-25 16:30:00,65.8,43.3,30.14,NW,313,1.0,9.0,44,0.00,,---,0.00,VWS V14.01,2013-05-25 20:30:00,
2013-05-25 16:39:00,66.0,42.3,30.14,East,82,2.0,7.0,42,0.00,,---,0.00,VWS V14.01,2013-05-25 20:39:00,
2013-05-25 16:54:00,65.9,42.2,30.14,NE,46,6.0,8.0,42,0.00,,---,0.00,VWS V14.01,2013-05-25 20:54:00,
2013-05-25 17:00:00,65.7,42.0,30.14,ENE,57,0.0,8.0,42,0.00,,---,0.00,VWS V14.01,2013-05-25 21:00:00,
2013-05-25 17:09:00,65.9,42.2,30.15,East,82,1.0,3.0,42,0.00,,---,0.00,VWS V14.01,2013-05-25 21:09:00,
2013-05-25 17:24:00,65.8,41.5,30.14,North,355,1.0,9.0,41,0.00,,---,0.00,VWS V14.01,2013-05-25 21:24:00,
2013-05-25 17:30:00,65.6,41.9,30.14,North,360,0.0,9.0,42,0.00,,---,0.00,VWS V14.01,2013-05-25 21:30:00,
2013-05-25 17:39:00,65.7,43.2,30.14,NNE,17,0.0,4.0,44,0.00,,---,0.00,VWS V14.01,2013-05-25 21:39:00,
2013-05-25 17:54:00,65.8,42.1,30.14,ENE,78,4.0,6.0,42,0.00,,---,0.00,VWS V14.01,2013-05-25 21:54:00,
2013-05-25 18:00:00,65.7,42.0,30.14,ENE,73,0.0,6.0,42,0.00,,---,0.00,VWS V14.01,2013-05-25 22:00:00,
2013-05-25 18:09:00,65.6,42.5,30.14,West,277,0.0,7.0,43,0.00,,---,0.00,VWS V14.01,2013-05-25 22:09:00,
2013-05-25 18:24:00,65.5,41.8,30.14,NE,36,2.0,7.0,42,0.00,,---,0.00,VWS V14.01,2013-05-25 22:24:00,
2013-05-25 18:30:00,65.4,41.7,30.14,ENE,67,2.0,7.0,42,0.00,,---,0.00,VWS V14.01,2013-05-25 22:30:00,
2013-05-25 18:39:00,65.3,41.6,30.14,ESE,104,1.0,7.0,42,0.00,,---,0.00,VWS V14.01,2013-05-25 22:39:00,
2013-05-25 18:54:00,65.0,42.0,30.14,NNE,13,0.0,7.0,43,0.00,,---,0.00,VWS V14.01,2013-05-25 22:54:00,
2013-05-25 19:00:00,64.9,41.9,30.14,NNW,341,0.0,7.0,43,0.00,,---,0.00,VWS V14.01,2013-05-25 23:00:00,
2013-05-25 19:09:00,64.8,41.8,30.15,ENE,76,3.0,5.0,43,0.00,,---,0.00,VWS V14.01,2013-05-25 23:09:00,
2013-05-25 19:24:00,64.5,40.9,30.15,NE,45,2.0,7.0,42,0.00,,---,0.00,VWS V14.01,2013-05-25 23:24:00,
2013-05-25 19:30:00,64.4,41.4,30.15,WSW,250,0.0,7.0,43,0.00,,---,0.00,VWS V14.01,2013-05-25 23:30:00,
2013-05-25 19:39:00,64.1,41.8,30.16,West,269,2.0,4.0,44,0.00,,---,0.00,VWS V14.01,2013-05-25 23:39:00,
2013-05-25 19:54:00,63.9,41.6,30.16,NNW,343,7.0,7.0,44,0.00,,---,0.00,VWS V14.01,2013-05-25 23:54:00,
2013-05-25 20:00:00,63.7,41.4,30.16,NW,321,0.0,7.0,44,0.00,,---,0.00,VWS V14.01,2013-05-26 00:00:00,
2013-05-25 20:09:00,63.4,41.1,30.16,North,360,0.0,4.0,44,0.00,,---,0.00,VWS V14.01,2013-05-26 00:09:00,
2013-05-25 20:24:00,62.9,40.7,30.16,NE,53,0.0,5.0,44,0.00,,---,0.00,VWS V14.01,2013-05-26 00:24:00,
2013-05-25 20:30:00,62.8,41.2,30.16,ENE,64,0.0,5.0,45,0.00,,---,0.00,VWS V14.01,2013-05-26 00:30:00,
2013-05-25 20:39:00,62.2,41.7,30.16,ENE,64,0.0,0.0,47,0.00,,---,0.00,VWS V14.01,2013-05-26 00:39:00,
2013-05-25 20:54:00,61.3,42.0,30.16,West,276,0.0,2.0,49,0.00,,---,0.00,VWS V14.01,2013-05-26 00:54:00,
2013-05-25 21:00:00,61.0,41.7,30.16,West,276,0.0,2.0,49,0.00,,---,0.00,VWS V14.01,2013-05-26 01:00:00,
2013-05-25 21:09:00,60.5,41.8,30.17,West,277,0.0,0.0,50,0.00,,---,0.00,VWS V14.01,2013-05-26 01:09:00,
2013-05-25 21:24:00,59.5,41.4,30.17,West,277,0.0,1.0,51,0.00,,---,0.00,VWS V14.01,2013-05-26 01:24:00,
2013-05-25 21:30:00,59.2,41.6,30.17,West,277,0.0,1.0,52,0.00,,---,0.00,VWS V14.01,2013-05-26 01:30:00,
2013-05-25 21:39:00,58.9,42.3,30.17,West,277,0.0,0.0,54,0.00,,---,0.00,VWS V14.01,2013-05-26 01:39:00,
2013-05-25 21:54:00,57.6,42.5,30.18,West,276,0.0,0.0,57,0.00,,---,0.00,VWS V14.01,2013-05-26 01:54:00,
2013-05-25 22:00:00,57.3,42.7,30.18,West,277,0.0,0.0,58,0.00,,---,0.00,VWS V14.01,2013-05-26 02:00:00,
2013-05-25 22:09:00,56.9,41.8,30.18,West,276,0.0,0.0,57,0.00,,---,0.00,VWS V14.01,2013-05-26 02:09:00,
2013-05-25 22:24:00,56.9,42.3,30.19,West,277,0.0,0.0,58,0.00,,---,0.00,VWS V14.01,2013-05-26 02:24:00,
2013-05-25 22:30:00,56.7,42.1,30.19,West,276,0.0,0.0,58,0.00,,---,0.00,VWS V14.01,2013-05-26 02:30:00,
2013-05-25 22:39:00,56.3,41.7,30.19,West,276,0.0,0.0,58,0.00,,---,0.00,VWS V14.01,2013-05-26 02:39:00,
2013-05-25 22:54:00,55.8,41.7,30.19,West,276,0.0,0.0,59,0.00,,---,0.00,VWS V14.01,2013-05-26 02:54:00,
2013-05-25 23:00:00,55.6,41.5,30.20,West,277,0.0,0.0,59,0.00,,---,0.00,VWS V14.01,2013-05-26 03:00:00,
2013-05-25 23:09:00,55.5,41.4,30.20,West,276,0.0,0.0,59,0.00,,---,0.00,VWS V14.01,2013-05-26 03:09:00,
2013-05-25 23:24:00,55.2,41.6,30.20,West,276,0.0,1.0,60,0.00,,---,0.00,VWS V14.01,2013-05-26 03:24:00,
2013-05-25 23:30:00,55.1,41.0,30.20,West,276,0.0,1.0,59,0.00,,---,0.00,VWS V14.01,2013-05-26 03:30:00,
2013-05-25 23:40:00,54.9,40.9,30.21,West,276,0.0,0.0,59,0.00,,---,0.00,VWS V14.01,2013-05-26 03:40:00,
2013-05-25 23:55:00,55.8,39.9,30.20,NW,304,0.0,1.0,55,0.00,,---,0.00,VWS V14.01,2013-05-26 03:55:00,